• In Belarus
  • List of Countries
  • For 7 days
  • Water Temperature
  • Satellite Maps
  • Weather Map
  • Weather Widgets
  • user-avatar
    Login

    Hourly Weather Encamp

    Today, 19 September, Tuesday

    Time Temperature Precipitation Wind Pressure Humidity
    00:00 +1°C° 0 mm 2 mps 625 mmHg 80%
    01:00 +1°C° 0 mm 2 mps 625 mmHg 79%
    02:00 +1°C° 0 mm 2 mps 625 mmHg 77%
    03:00 +1°C° 0 mm 2 mps 624 mmHg 76%
    04:00 +1°C° 0 mm 2 mps 624 mmHg 75%
    05:00 -1°C° 0 mm 2 mps 624 mmHg 75%
    06:00 0°C° 0 mm 3 mps 625 mmHg 75%
    07:00 +2°C° 0 mm 3 mps 626 mmHg 65%
    08:00 +5°C° 0 mm 3 mps 627 mmHg 56%
    09:00 +8°C° 0 mm 3 mps 628 mmHg 46%
    10:00 +9°C° 0 mm 3 mps 628 mmHg 41%
    11:00 +10°C° 0 mm 3 mps 628 mmHg 36%
    12:00 +12°C° 0 mm 4 mps 629 mmHg 30%
    13:00 +12°C° 0 mm 4 mps 629 mmHg 32%
    14:00 +12°C° 0 mm 4 mps 628 mmHg 33%
    15:00 +12°C° 0 mm 4 mps 628 mmHg 35%
    16:00 +10°C° 0 mm 3 mps 627 mmHg 44%
    17:00 +7°C° 0 mm 3 mps 627 mmHg 54%
    18:00 +5°C° 0 mm 2 mps 626 mmHg 64%
    19:00 +4°C° 0 mm 2 mps 626 mmHg 68%
    20:00 +3°C° 0 mm 2 mps 626 mmHg 73%
    21:00 +3°C° 0 mm 2 mps 626 mmHg 77%
    22:00 +2°C° 0 mm 2 mps 626 mmHg 76%
    23:00 +2°C° 0 mm 2 mps 626 mmHg 76%

    Tomorrow, 20 September, Wednesday

    Time Temperature Precipitation Wind Pressure Humidity
    00:00 +2°C° 0 mm 2 mps 626 mmHg 75%
    01:00 +2°C° 0 mm 2 mps 626 mmHg 74%
    02:00 +2°C° 0 mm 2 mps 626 mmHg 72%
    03:00 +2°C° 0 mm 2 mps 626 mmHg 70%
    04:00 +2°C° 0 mm 2 mps 626 mmHg 68%
    05:00 +2°C° 0 mm 2 mps 625 mmHg 65%
    06:00 +2°C° 0 mm 2 mps 625 mmHg 62%
    07:00 +5°C° 0 mm 2 mps 627 mmHg 54%
    08:00 +9°C° 0 mm 1 mps 628 mmHg 46%
    09:00 +12°C° 0 mm 1 mps 629 mmHg 38%
    10:00 +13°C° 0 mm 1 mps 630 mmHg 37%
    11:00 +15°C° 0 mm 1 mps 630 mmHg 35%
    12:00 +16°C° 0 mm 1 mps 630 mmHg 33%
    13:00 +16°C° 0 mm 1 mps 630 mmHg 35%
    14:00 +16°C° 0 mm 2 mps 629 mmHg 37%
    15:00 +16°C° 0 mm 2 mps 629 mmHg 39%
    16:00 +13°C° 0 mm 1 mps 628 mmHg 48%
    17:00 +11°C° 0 mm 1 mps 627 mmHg 58%
    18:00 +9°C° 0 mm 1 mps 626 mmHg 67%
    19:00 +8°C° 0 mm 1 mps 626 mmHg 69%
    20:00 +8°C° 0 mm 1 mps 626 mmHg 71%
    21:00 +7°C° 0 mm 1 mps 626 mmHg 73%
    22:00 +7°C° 0 mm 1 mps 625 mmHg 73%
    23:00 +7°C° 0 mm 1 mps 625 mmHg 72%

    Day after tomorrow, 21 September, Thursday

    Time Temperature Precipitation Wind Pressure Humidity
    00:00 +7°C° 0 mm 1 mps 625 mmHg 71%
    01:00 +7°C° 0 mm 1 mps 625 mmHg 70%
    02:00 +7°C° 0 mm 1 mps 625 mmHg 70%
    03:00 +7°C° 0 mm 1 mps 625 mmHg 69%
    04:00 +7°C° 0 mm 1 mps 625 mmHg 68%
    05:00 +7°C° 0 mm 1 mps 624 mmHg 68%
    06:00 +7°C° 0 mm 1 mps 624 mmHg 67%
    07:00 +10°C° 0 mm 1 mps 626 mmHg 59%
    08:00 +13°C° 0 mm 1 mps 627 mmHg 50%
    09:00 +16°C° 0 mm 1 mps 628 mmHg 42%
    10:00 +18°C° 0 mm 1 mps 629 mmHg 39%
    11:00 +18°C° 0 mm 2 mps 629 mmHg 37%
    12:00 +19°C° 0 mm 2 mps 629 mmHg 35%
    13:00 +19°C° 0 mm 2 mps 629 mmHg 37%
    14:00 +19°C° 0 mm 2 mps 628 mmHg 39%
    15:00 +18°C° 0 mm 2 mps 628 mmHg 41%
    16:00 +16°C° 0 mm 2 mps 627 mmHg 52%
    17:00 +14°C° 0 mm 1 mps 627 mmHg 63%
    18:00 +10°C° 0 mm 0 mps 626 mmHg 75%
    19:00 +11°C° 0.2 mm 1 mps 626 mmHg 77%
    20:00 +10°C° 0.2 mm 1 mps 626 mmHg 79%
    21:00 +9°C° 0.2 mm 1 mps 626 mmHg 82%
    22:00 +9°C° 0.1 mm 1 mps 626 mmHg 82%
    23:00 +9°C° 0.1 mm 1 mps 626 mmHg 82%

    22 September, Friday

    Time Temperature Precipitation Wind Pressure Humidity
    00:00 +8°C° 0.1 mm 1 mps 626 mmHg 82%
    01:00 +8°C° 0.1 mm 1 mps 626 mmHg 82%
    02:00 +8°C° 0.1 mm 1 mps 626 mmHg 83%
    03:00 +8°C° 0.1 mm 1 mps 626 mmHg 83%
    04:00 +8°C° 0.3 mm 1 mps 626 mmHg 85%
    05:00 +8°C° 0.3 mm 1 mps 626 mmHg 86%
    06:00 +8°C° 0.3 mm 1 mps 627 mmHg 87%
    07:00 +9°C° 0.3 mm 1 mps 627 mmHg 85%
    08:00 +10°C° 0.3 mm 1 mps 628 mmHg 84%
    09:00 +11°C° 0.3 mm 1 mps 628 mmHg 82%
    10:00 +12°C° 0.1 mm 1 mps 629 mmHg 75%
    11:00 +14°C° 0.1 mm 1 mps 629 mmHg 69%
    12:00 +15°C° 0.1 mm 2 mps 630 mmHg 62%
    13:00 +15°C° 1 mm 2 mps 630 mmHg 64%
    14:00 +15°C° 1 mm 2 mps 629 mmHg 66%
    15:00 +14°C° 1 mm 2 mps 629 mmHg 67%
    16:00 +13°C° 1.2 mm 1 mps 629 mmHg 75%
    17:00 +12°C° 1.2 mm 1 mps 628 mmHg 82%
    18:00 +10°C° 1.2 mm 1 mps 628 mmHg 89%
    19:00 +10°C° 1 mm 1 mps 628 mmHg 91%
    20:00 +10°C° 1 mm 1 mps 628 mmHg 92%
    21:00 +8°C° 1 mm 0 mps 628 mmHg 94%
    22:00 +9°C° 0.5 mm 1 mps 628 mmHg 93%
    23:00 +9°C° 0.5 mm 1 mps 628 mmHg 92%

    23 September, Saturday

    Time Temperature Precipitation Wind Pressure Humidity
    00:00 +9°C° 0.5 mm 1 mps 627 mmHg 91%
    01:00 +9°C° 0.2 mm 1 mps 627 mmHg 90%
    02:00 +9°C° 0.2 mm 1 mps 627 mmHg 89%
    03:00 +8°C° 0.2 mm 1 mps 627 mmHg 88%
    04:00 +8°C° 0.1 mm 1 mps 627 mmHg 88%
    05:00 +8°C° 0.1 mm 1 mps 627 mmHg 88%
    06:00 +8°C° 0.1 mm 1 mps 627 mmHg 87%
    07:00 +9°C° 0.1 mm 1 mps 627 mmHg 81%
    08:00 +11°C° 0.1 mm 1 mps 628 mmHg 75%
    09:00 +13°C° 0.1 mm 1 mps 629 mmHg 69%
    10:00 +14°C° 0.1 mm 2 mps 629 mmHg 64%
    11:00 +15°C° 0.1 mm 2 mps 629 mmHg 58%
    12:00 +16°C° 0.1 mm 2 mps 629 mmHg 53%
    13:00 +16°C° 0.3 mm 2 mps 629 mmHg 54%
    14:00 +16°C° 0.3 mm 2 mps 629 mmHg 55%
    15:00 +16°C° 0.3 mm 2 mps 628 mmHg 57%
    16:00 +14°C° 0.3 mm 1 mps 628 mmHg 63%
    17:00 +13°C° 0.3 mm 1 mps 627 mmHg 70%
    18:00 +11°C° 0.3 mm 1 mps 627 mmHg 76%
    19:00 +10°C° 0.1 mm 1 mps 627 mmHg 78%
    20:00 +10°C° 0.1 mm 1 mps 627 mmHg 80%
    21:00 +9°C° 0.1 mm 1 mps 626 mmHg 81%
    22:00 +9°C° 0 mm 1 mps 626 mmHg 80%
    23:00 +8°C° 0 mm 1 mps 626 mmHg 79%

    24 September, Sunday

    Time Temperature Precipitation Wind Pressure Humidity
    00:00 +8°C° 0 mm 1 mps 626 mmHg 78%
    01:00 +8°C° 0 mm 1 mps 626 mmHg 77%
    02:00 +8°C° 0 mm 1 mps 625 mmHg 75%
    03:00 +8°C° 0 mm 1 mps 625 mmHg 73%
    04:00 +7°C° 0 mm 1 mps 625 mmHg 72%
    05:00 +6°C° 0 mm 2 mps 625 mmHg 72%
    06:00 +6°C° 0 mm 2 mps 625 mmHg 71%
    07:00 +10°C° 0 mm 1 mps 626 mmHg 63%
    08:00 +13°C° 0 mm 1 mps 628 mmHg 55%
    09:00 +16°C° 0 mm 1 mps 629 mmHg 46%
    10:00 +18°C° 0 mm 1 mps 629 mmHg 43%
    11:00 +19°C° 0 mm 1 mps 629 mmHg 39%
    12:00 +20°C° 0 mm 1 mps 630 mmHg 35%
    13:00 +20°C° 0 mm 1 mps 629 mmHg 36%
    14:00 +19°C° 0 mm 2 mps 629 mmHg 38%
    15:00 +18°C° 0 mm 2 mps 629 mmHg 39%
    16:00 +16°C° 0 mm 2 mps 628 mmHg 46%
    17:00 +14°C° 0 mm 1 mps 627 mmHg 53%
    18:00 +12°C° 0 mm 1 mps 627 mmHg 61%
    19:00 +12°C° 0 mm 1 mps 627 mmHg 63%
    20:00 +12°C° 0 mm 1 mps 627 mmHg 65%
    21:00 +11°C° 0 mm 1 mps 627 mmHg 68%
    22:00 +10°C° 0 mm 1 mps 627 mmHg 70%
    23:00 +10°C° 0 mm 1 mps 627 mmHg 72%
    Show more